Weather History for Pittsburg, KS

Change the Weather History Date:

Wednesday, August 14, 2013

  Actual Average (KJLN) Record (KJLN)
Temperature  
Mean Temperature 70 °F 80 °F  
Max Temperature 78 °F 92 °F 103 °F (2007)
Min Temperature 63 °F 69 °F 54 °F (2004)
Degree Days  
Heating Degree Days 0 0  
Month to date heating degree days 0  
Since 1 June heating degree days 5  
Since 1 July heating degree days 0  
Cooling Degree Days 6 15  
Month to date cooling degree days 221  
Year to date cooling degree days 1192  
Since 1 June cooling degree days 1012  
Growing Degree Days 20 (Base 50)    
Moisture  
Dew Point 62 °F    
Average Humidity 78    
Maximum Humidity 100    
Minimum Humidity 50    
Precipitation  
Precipitation 0.01 in 0.10 in 4.91 in (1980)
Month to date precipitation 1.42  
Year to date precipitation 29.04  
Sea Level Pressure  
Sea Level Pressure 30.13 in    
Wind  
Wind Speed 4 mph (East)    
Max Wind Speed 10 mph    
Max Gust Speed -    
Visibility 10 miles    
Events      
T = Trace of Precipitation, MM = Missing Value Source: NWS Daily Summary

Daily Weather History Graph

Daily Weather History Graph

Search for Another Location

Airport:

Trip Planner

Search our weather history database for the weather conditions in past years. The results will help you decide how hot, cold, wet, or windy it might be!

Date:

Astronomy

Aug. 14, 2013 Rise Set
Actual Time 6:34 AM CDT 8:12 PM CDT
Civil Twilight 6:06 AM CDT 8:39 PM CDT
Nautical Twilight 5:32 AM CDT 9:13 PM CDT
Astronomical Twilight 4:57 AM CDT 9:48 PM CDT
Moon 2:23 PM CDT (8/14) No Moon Set
Length of Visible Light 14h 33m
Length of Day
13h 37m
First Quarter, 53% of the Moon is Illuminated
Aug 14
First Quarter
Aug 20
Full
Aug 28
Last Quarter
Sep 5
New
Sep 12
First Quarter

Hourly Weather History & Observations

Time (CDT) Temp. Dew Point Humidity Pressure Visibility Wind Dir Wind Speed Gust Speed Precip Events Conditions
12:15 AM 68.4 °F 68.4 °F 100% 30.11 in 10.0 mi Calm Calm - N/A   Clear
12:35 AM 68.4 °F 68.5 °F 100% 30.11 in 10.0 mi NE 3.5 mph - N/A   Clear
12:55 AM 66.4 °F 66.7 °F 100% 30.10 in 10.0 mi NE 3.5 mph - N/A   Clear
1:15 AM - - N/A% 30.11 in 10.0 mi NNE 3.5 mph - N/A   Clear
1:35 AM - - N/A% 30.11 in 10.0 mi NNE 4.6 mph - N/A   Clear
1:55 AM 65.8 °F 66.2 °F 100% 30.11 in 10.0 mi NNE 4.6 mph - N/A   Clear
2:15 AM 64.9 °F 65.1 °F 100% 30.11 in 10.0 mi NE 3.5 mph - N/A   Clear
2:35 AM 64.6 °F 64.8 °F 100% 30.10 in 10.0 mi NE 4.6 mph - N/A   Clear
2:55 AM 64.4 °F 64.6 °F 100% 30.10 in 10.0 mi ENE 3.5 mph - N/A   Clear
3:15 AM 64.0 °F 64.2 °F 100% 30.10 in 10.0 mi NE 3.5 mph - N/A   Clear
3:35 AM 63.9 °F 64.0 °F 100% 30.11 in 10.0 mi NE 4.6 mph - N/A   Clear
3:55 AM 63.5 °F - N/A% 30.11 in 10.0 mi NE 3.5 mph - N/A   Clear
4:15 AM 63.7 °F 64.0 °F 100% 30.11 in 10.0 mi Calm Calm - N/A   Clear
4:35 AM 63.5 °F - N/A% 30.12 in 10.0 mi NE 4.6 mph - N/A   Clear
4:55 AM 63.9 °F 64.2 °F 100% 30.12 in 10.0 mi NE 4.6 mph - N/A   Clear
5:15 AM 63.9 °F 64.0 °F 100% 30.13 in 10.0 mi ENE 4.6 mph - N/A   Clear
5:35 AM 64.0 °F 64.2 °F 100% 30.13 in 10.0 mi ENE 5.8 mph - N/A   Clear
5:55 AM 63.9 °F 64.0 °F 100% 30.13 in 10.0 mi ENE 5.8 mph - N/A   Clear
6:15 AM 63.7 °F 63.9 °F 100% 30.14 in 10.0 mi East 4.6 mph - N/A   Clear
6:35 AM 63.5 °F 63.7 °F 100% 30.14 in 10.0 mi East 5.8 mph - N/A   Clear
6:55 AM 63.5 °F 63.7 °F 100% 30.14 in 10.0 mi East 5.8 mph - N/A   Clear
7:15 AM 63.7 °F 63.9 °F 100% 30.14 in 10.0 mi East 4.6 mph - N/A   Clear
7:35 AM 64.0 °F 64.2 °F 100% 30.14 in 10.0 mi East 4.6 mph - N/A   Clear
7:55 AM 65.5 °F 65.7 °F 100% 30.14 in 10.0 mi ESE 6.9 mph - N/A   Clear
8:15 AM 66.4 °F 66.6 °F 100% 30.15 in 10.0 mi ESE 3.5 mph - N/A   Clear
8:35 AM 68.4 °F 68.4 °F 100% 30.15 in 10.0 mi ESE 6.9 mph - N/A   Clear
8:55 AM 69.4 °F 68.7 °F 98% 30.16 in 10.0 mi ESE 6.9 mph - N/A   Clear
9:15 AM 70.9 °F 68.9 °F 93% 30.16 in 10.0 mi SE 10.4 mph - N/A   Clear
9:35 AM 70.9 °F 67.8 °F 90% 30.17 in 10.0 mi SE 6.9 mph - N/A   Clear
9:55 AM 70.9 °F 66.4 °F 86% 30.17 in 10.0 mi ESE 9.2 mph - N/A   Clear
10:15 AM 71.6 °F 63.5 °F 76% 30.18 in 10.0 mi East 8.1 mph - N/A   Clear
10:35 AM 72.9 °F 63.3 °F 72% 30.18 in 10.0 mi East 5.8 mph - N/A   Clear
10:55 AM 74.3 °F 63.7 °F 69% 30.19 in 10.0 mi East 6.9 mph - N/A   Clear
11:15 AM 75.6 °F 64.0 °F 67% 30.19 in 10.0 mi East 6.9 mph - N/A   Clear
11:35 AM - - N/A% - - North - - N/A   Clear
11:55 AM - - N/A% - - North - - N/A   Unknown
12:15 PM - - N/A% - - North - - N/A   Unknown
12:35 PM - - N/A% 30.17 in - ESE 8.1 mph - N/A   Unknown
12:55 PM 77.5 °F 61.9 °F 58% 30.16 in 10.0 mi East 8.1 mph - N/A   Unknown
1:15 PM 77.0 °F 60.4 °F 56% 30.16 in 10.0 mi ESE 4.6 mph - N/A   Scattered Clouds
1:35 PM 76.1 °F 59.7 °F 57% 30.15 in 10.0 mi ESE 5.8 mph - N/A   Scattered Clouds
1:55 PM 76.5 °F 60.4 °F 58% 30.15 in 10.0 mi ESE 9.2 mph - N/A   Mostly Cloudy
2:55 PM 77.2 °F 60.4 °F 56% 30.14 in 10.0 mi SE 4.6 mph - 0.01 in   Scattered Clouds
3:15 PM 77.4 °F 59.9 °F 55% 30.14 in 10.0 mi East 8.1 mph - N/A   Scattered Clouds
3:35 PM 78.4 °F 60.3 °F 53% 30.13 in 10.0 mi East 8.1 mph - N/A   Clear
3:55 PM 77.9 °F 60.3 °F 54% 30.12 in 10.0 mi East 6.9 mph - N/A   Scattered Clouds
4:15 PM 78.3 °F 60.4 °F 54% 30.12 in 10.0 mi East 9.2 mph - N/A   Scattered Clouds
4:35 PM 78.3 °F 59.7 °F 53% 30.11 in 10.0 mi ENE 8.1 mph - N/A   Mostly Cloudy
4:55 PM 77.7 °F 58.5 °F 51% 30.11 in 10.0 mi East 5.8 mph - N/A   Scattered Clouds
5:15 PM 77.5 °F 57.7 °F 50% 30.10 in 10.0 mi ESE 6.9 mph - N/A   Scattered Clouds
5:35 PM 78.4 °F 58.8 °F 51% 30.10 in 10.0 mi ESE 6.9 mph - N/A   Scattered Clouds
5:55 PM 77.9 °F 57.7 °F 50% 30.11 in 10.0 mi NE 8.1 mph - N/A   Scattered Clouds
6:15 PM 76.6 °F 56.7 °F 50% 30.10 in 10.0 mi NE 6.9 mph - N/A   Scattered Clouds
6:35 PM 76.1 °F 56.5 °F 50% 30.09 in 10.0 mi ENE 5.8 mph - N/A   Clear
6:55 PM 76.1 °F 57.0 °F 51% 30.09 in 10.0 mi East 5.8 mph - N/A   Clear
7:15 PM 76.1 °F 58.6 °F 55% 30.09 in 10.0 mi ENE 4.6 mph - N/A   Clear
7:35 PM 75.2 °F 58.6 °F 56% 30.09 in 10.0 mi East 5.8 mph - N/A   Clear
7:55 PM 72.3 °F 58.1 °F 61% 30.09 in 10.0 mi East 5.8 mph - N/A   Clear
8:15 PM 70.9 °F 58.6 °F 65% 30.09 in 10.0 mi ENE 3.5 mph - N/A   Clear
8:35 PM 70.9 °F 60.6 °F 70% 30.09 in 10.0 mi East 4.6 mph - N/A   Clear
8:55 PM 70.9 °F 62.1 °F 74% 30.10 in 10.0 mi East 4.6 mph - N/A   Clear
9:15 PM 70.0 °F 61.3 °F 74% 30.11 in 10.0 mi Calm Calm - N/A   Clear
9:35 PM 67.8 °F 61.2 °F 79% 30.11 in 10.0 mi Calm Calm - N/A   Clear
9:55 PM 67.1 °F 61.0 °F 81% 30.12 in 10.0 mi Calm Calm - N/A   Clear
10:15 PM 66.4 °F 60.1 °F 80% 30.13 in 10.0 mi Calm Calm - N/A   Clear
10:35 PM 65.8 °F 59.9 °F 81% 30.13 in 10.0 mi East 4.6 mph - N/A   Clear
10:55 PM 65.7 °F 59.5 °F 81% 30.13 in 10.0 mi Calm Calm - N/A   Clear
11:15 PM 64.0 °F 59.5 °F 85% 30.13 in 10.0 mi Calm Calm - N/A   Clear
11:35 PM 64.0 °F 59.2 °F 84% 30.13 in 10.0 mi East 3.5 mph - N/A   Clear
11:55 PM 63.9 °F 58.5 °F 83% 30.13 in 10.0 mi East 4.6 mph - N/A   Clear